DW4393 Weather Reports


Display with metric or nautical units.
time (UTC)temp
F
wind
direction
speed
MPH
gust
MPH
rain 1hr
in
rain 24hr
in
rain mn
in
humidity
%
barometer
mb
20260505221303 78 225 1.0 3.0 0.00 0.00 0.00 42 1012.7
20260505220803 78 211 1.0 2.0 0.00 0.00 0.00 42 1012.9
20260505220303 78 197 1.0 5.0 0.00 0.00 0.00 41 1013.0
20260505214803 79 224 1.0 3.0 0.00 0.00 0.00 41 1013.0
20260505214303 79 200 2.0 3.0 0.00 0.00 0.00 43 1013.1
20260505213803 79 252 1.0 3.0 0.00 0.00 0.00 43 1013.1
20260505213303 79 241 2.0 3.0 0.00 0.00 0.00 42 1013.1
20260505211804 79 226 2.0 3.0 0.00 0.00 0.00 42 1013.1
20260505211303 79 241 2.0 5.0 0.00 0.00 0.00 42 1013.1
20260505210803 79 234 2.0 3.0 0.00 0.00 0.00 43 1013.2
20260505210303 79 219 2.0 3.0 0.00 0.00 0.00 43 1013.2
20260505204803 79 250 2.0 3.0 0.00 0.00 0.00 43 1013.4
20260505204303 79 229 2.0 3.0 0.00 0.00 0.00 42 1013.4
20260505203803 79 243 2.0 5.0 0.00 0.00 0.00 44 1013.4
20260505201303 79 258 1.0 3.0 0.00 0.00 0.00 43 1013.9
20260505200803 80 261 2.0 3.0 0.00 0.00 0.00 42 1014.0
20260505194803 78 249 1.0 3.0 0.00 0.00 0.00 44 1014.1
20260505194304 77 268 2.0 3.0 0.00 0.00 0.00 43 1014.1
20260505193803 78 251 2.0 3.0 0.00 0.00 0.00 45 1014.2
20260505191803 77 247 1.0 3.0 0.00 0.00 0.00 43 1014.4
20260505191303 78 173 1.0 3.0 0.00 0.00 0.00 46 1014.4
20260505190804 78 201 2.0 3.0 0.00 0.00 0.00 44 1014.5
20260505190303 78 239 1.0 5.0 0.00 0.00 0.00 44 1014.5
20260505184804 77 201 1.0 2.0 0.00 0.00 0.00 47 1014.8
20260505184303 77 195 2.0 6.0 0.00 0.00 0.00 47 1015.1
20260505183804 76 182 1.0 3.0 0.00 0.00 0.00 47 1014.9
20260505183303 76 170 1.0 5.0 0.00 0.00 0.00 46 1015.1
20260505181803 78 250 2.0 5.0 0.00 0.00 0.00 48 1015.4
20260505181303 77 220 2.0 3.0 0.00 0.00 0.00 46 1015.4
20260505180803 76 183 2.0 3.0 0.00 0.00 0.00 45 1015.4
20260505180304 77 171 2.0 3.0 0.00 0.00 0.00 46 1015.4
20260505174803 77 257 2.0 6.0 0.00 0.00 0.00 45 1015.8
20260505174304 77 249 2.0 5.0 0.00 0.00 0.00 46 1015.8
20260505173803 77 202 2.0 5.0 0.00 0.00 0.00 46 1015.8
20260505173304 76 229 2.0 6.0 0.00 0.00 0.00 45 1015.9
20260505171804 77 226 3.0 7.0 0.00 0.00 0.00 46 1015.9
20260505171303 76 239 2.0 5.0 0.00 0.00 0.00 44 1015.8
20260505170303 76 241 2.0 6.0 0.00 0.00 0.00 46 1015.8
20260505164804 75 170 1.0 3.0 0.00 0.00 0.00 48 1015.8
20260505164303 75 168 2.0 3.0 0.00 0.00 0.00 47 1015.9
20260505163804 75 184 2.0 5.0 0.00 0.00 0.00 48 1016.1
20260505163303 74 159 2.0 3.0 0.00 0.00 0.00 49 1016.3
20260505161804 74 182 2.0 6.0 0.00 0.00 0.00 50 1016.6
20260505161303 73 173 1.0 3.0 0.00 0.00 0.00 50 1016.5
20260505160804 72 178 2.0 3.0 0.00 0.00 0.00 48 1016.6
20260505160304 73 211 2.0 3.0 0.00 0.00 0.00 53 1016.7
20260505153304 71 223 1.0 3.0 0.00 0.00 0.00 61 1016.6
20260505151304 69 217 1.0 1.0 0.00 0.00 0.00 65 1016.9
20260505150804 68 217 0.0 1.0 0.00 0.00 0.00 66 1016.8
20260505150303 68 248 0.0 3.0 0.00 0.00 0.00 66 1016.6
20260505140304 62 194 0.0 1.0 0.00 0.00 0.00 75 1016.4
20260505130304 54 194 0.0 0.0 0.00 0.00 0.00 90 1015.8
20260505124804 53 194 0.0 0.0 0.00 0.00 0.00 92 1015.8
20260505124303 52 194 0.0 0.0 0.00 0.00 0.00 92 1015.8
20260505123303 51 194 0.0 0.0 0.00 0.00 0.00 93 1015.8
20260505121803 49 194 0.0 0.0 0.00 0.00 0.00 93 1016.0
20260505121304 49 194 0.0 0.0 0.00 0.00 0.00 93 1015.9
20260505120803 48 194 0.0 0.0 0.00 0.00 0.00 93 1015.9
20260505120304 48 194 0.0 0.0 0.00 0.00 0.00 93 1015.8
20260505114804 46 194 0.0 0.0 0.00 0.00 0.00 93 1015.4
20260505114303 46 194 0.0 0.0 0.00 0.00 0.00 93 1015.3
20260505113803 46 194 0.0 0.0 0.00 0.00 0.00 93 1015.2
20260505113304 46 194 0.0 0.0 0.00 0.00 0.00 93 1015.2
20260505111804 45 194 0.0 0.0 0.00 0.00 0.00 93 1015.1
20260505111304 45 194 0.0 0.0 0.00 0.00 0.00 93 1015.1
20260505110804 45 194 0.0 0.0 0.00 0.00 0.00 93 1015.1
20260505110304 45 194 0.0 0.0 0.00 0.00 0.00 93 1015.1
20260505101804 46 194 0.0 0.0 0.00 0.00 0.00 92 1015.2
20260505100804 46 194 0.0 0.0 0.00 0.00 0.00 92 1015.3
20260505100303 46 194 0.0 0.0 0.00 0.00 0.00 93 1015.2
20260505094303 47 194 0.0 0.0 0.00 0.00 0.00 92 1014.9
20260505091804 47 194 0.0 0.0 0.00 0.00 0.00 92 1015.2
20260505091304 47 194 0.0 0.0 0.00 0.00 0.00 92 1015.3
20260505090804 47 194 0.0 0.0 0.00 0.00 0.00 92 1015.4
20260505090303 47 194 0.0 0.0 0.00 0.00 0.00 92 1015.4
20260505084804 47 194 0.0 1.0 0.00 0.00 0.00 92 1015.6
20260505084304 47 194 0.0 2.0 0.00 0.00 0.00 92 1015.3
20260505083804 47 194 0.0 2.0 0.00 0.00 0.00 92 1015.3
20260505083304 47 194 0.0 0.0 0.00 0.00 0.00 92 1015.1
20260505081804 48 194 0.0 0.0 0.00 0.00 0.00 91 1015.0
20260505081304 48 194 0.0 0.0 0.00 0.00 0.00 91 1015.0
20260505080804 48 194 0.0 0.0 0.00 0.00 0.00 91 1015.0
20260505080304 48 194 0.0 0.0 0.00 0.00 0.00 91 1014.9
20260505074804 48 194 0.0 0.0 0.00 0.00 0.00 91 1015.0
20260505074304 48 194 0.0 0.0 0.00 0.00 0.00 91 1014.9
20260505073804 48 194 0.0 0.0 0.00 0.00 0.00 91 1015.0
20260505073304 49 194 0.0 0.0 0.00 0.00 0.00 91 1014.9
20260505071804 49 194 0.0 0.0 0.00 0.00 0.00 91 1014.9
20260505071304 49 194 0.0 0.0 0.00 0.00 0.00 91 1015.0
20260505070804 49 194 0.0 0.0 0.00 0.00 0.00 91 1014.9
20260505070304 49 194 0.0 0.0 0.00 0.00 0.00 91 1014.9
20260505064803 49 194 0.0 0.0 0.00 0.00 0.00 91 1015.0
20260505064304 49 194 0.0 0.0 0.00 0.00 0.00 91 1015.0
20260505063804 49 194 0.0 0.0 0.00 0.00 0.00 90 1015.0
20260505063304 50 194 0.0 0.0 0.00 0.00 0.00 90 1015.2
20260505061804 50 194 0.0 0.0 0.00 0.00 0.00 90 1015.1
20260505061303 50 194 0.0 0.0 0.00 0.00 0.00 90 1015.1
20260505060804 50 194 0.0 0.0 0.00 0.00 0.00 90 1015.1
20260505060304 50 194 0.0 0.0 0.00 0.00 0.00 90 1015.2
20260505054304 51 194 0.0 0.0 0.00 0.00 0.00 89 1015.2
20260505053304 51 194 0.0 0.0 0.00 0.00 0.00 89 1015.3
20260505051804 51 194 0.0 0.0 0.00 0.00 0.00 89 1015.3
20260505050805 52 194 0.0 0.0 0.00 0.00 0.00 89 1015.3
20260505050304 52 194 0.0 0.0 0.00 0.00 0.00 89 1015.2
20260505041304 53 194 0.0 0.0 0.00 0.00 0.00 87 1015.3
20260505040822 53 194 0.0 0.0 0.00 0.00 0.00 86 1015.3
20260505034802 54 194 0.0 0.0 0.00 0.00 0.00 85 1015.4
20260505033803 54 194 0.0 0.0 0.00 0.00 0.00 85 1015.5
20260505033303 55 194 0.0 0.0 0.00 0.00 0.00 84 1015.7
20260505031803 55 194 0.0 0.0 0.00 0.00 0.00 84 1015.7
20260505031303 55 194 0.0 0.0 0.00 0.00 0.00 84 1015.6
20260505030802 56 194 0.0 0.0 0.00 0.00 0.00 83 1015.6
20260505030303 56 194 0.0 0.0 0.00 0.00 0.00 83 1015.6
20260505024804 56 194 0.0 0.0 0.00 0.00 0.00 82 1015.4
20260505024303 56 194 0.0 0.0 0.00 0.00 0.00 82 1015.4
20260505023802 56 194 0.0 0.0 0.00 0.00 0.00 81 1015.5
20260505023303 57 194 0.0 0.0 0.00 0.00 0.00 81 1015.4
20260505021303 58 194 0.0 0.0 0.00 0.00 0.00 79 1015.2
20260505020803 58 194 0.0 0.0 0.00 0.00 0.00 78 1015.2
20260505020303 58 194 0.0 0.0 0.00 0.00 0.00 78 1015.1
20260505014303 60 194 0.0 0.0 0.00 0.00 0.00 76 1015.0
20260505013803 60 194 0.0 0.0 0.00 0.00 0.00 75 1015.0
20260505013303 60 194 0.0 0.0 0.00 0.00 0.00 75 1014.9
20260505011802 61 194 0.0 0.0 0.00 0.00 0.00 70 1014.8
20260505010803 62 194 0.0 0.0 0.00 0.00 0.00 69 1014.8
20260505010304 63 194 0.0 0.0 0.00 0.00 0.00 67 1014.6
20260505004803 64 194 0.0 0.0 0.00 0.00 0.00 64 1014.5
20260505004303 64 194 0.0 0.0 0.00 0.00 0.00 63 1014.5
20260505003803 65 194 0.0 0.0 0.00 0.00 0.00 62 1014.4
20260505003303 65 194 0.0 0.0 0.00 0.00 0.00 61 1014.3
20260505001802 67 194 0.0 0.0 0.00 0.00 0.00 60 1014.4
20260505001303 68 194 0.0 0.0 0.00 0.00 0.00 54 1014.4
20260505000804 68 194 0.0 0.0 0.00 0.00 0.00 56 1014.4
20260505000303 69 194 0.0 0.0 0.00 0.00 0.00 54 1014.2
20260504234803 70 194 0.0 0.0 0.00 0.00 0.00 52 1014.3
20260504234303 70 194 0.0 1.0 0.00 0.00 0.00 50 1014.3
20260504233803 71 194 0.0 1.0 0.00 0.00 0.00 49 1014.4
20260504233303 71 194 0.0 1.0 0.00 0.00 0.00 48 1014.3
20260504231303 74 194 0.0 2.0 0.00 0.00 0.00 43 1014.4
20260504230803 73 194 0.0 2.0 0.00 0.00 0.00 43 1014.4
20260504230303 73 186 1.0 1.0 0.00 0.00 0.00 42 1014.4
20260504224802 74 184 1.0 2.0 0.00 0.00 0.00 41 1014.3
20260504224303 73 184 0.0 1.0 0.00 0.00 0.00 41 1014.5
20260504223804 73 184 1.0 2.0 0.00 0.00 0.00 42 1014.4
20260504223303 74 184 0.0 2.0 0.00 0.00 0.00 41 1014.4